Tracking 18980 objects as of 21-Feb-2018
HD Live streaming from Space Station
objects crossing your sky now

NOAA 16 DEB

Track NOAA 16 DEB now!
10-day predictions


NORAD ID: 42332
Int'l Code: 2000-055PY
Perigee: 793.9 km
Apogee: 853.6 km
Inclination: 99.1 °
Period: 101.2 minutes
Semi major axis: 7194 km
RCS: Unknown
Launch date: September 21, 2000
Source: United States (US)
Launch site: AIR FORCE WESTERN TEST RANGE (AFWTR)

Note: This is SATELLITE DEBRIS
aabbcc
Your satellite tracking list
Your tracking list is empty




NASA's NSSDC Master Catalog

Two Line Element Set (TLE):
1 42332U 00055PY  18052.21396686  .00008155  00000-0  36349-2 0  9997
2 42332  99.0815 144.8542 0041461  26.1572 334.1688 14.22581848101474
Source of the keplerian elements: AFSPC